www.pogodaiklimat.ru

Погода и климат >> Архив погоды >> Индонезия >> Голеа


ПОГОДА в Голеа

  • Прогноз погоды в Голеа
  • Монитор погоды в Голеа

АРХИВ ПОГОДЫ в Голеа

Время (UTC), дата Ветер
(напр.,м/с)
 
Видим.   Явления Облачность Т
(С)
Тd
(С)
f
(%)
Тe
(С)
Тes
(С)
Комфортность P
(гПа)
Po
(гПа)
Тmin
(С)
Tmax
(С)
R
(мм)
R24
(мм)
S
(см)
09 9.09 З 4 10 км 6/1 540 м
[Cu hum Ci fib]
+28.3 +21.1 65 +36 +36 очень
душно
1009.6 1005.5
12 9.09 штиль 0 10 км 6/1 540 м
[Cu hum Ci fib]
+24.4 +21.8 85 +31 +31 очень
душно
1012.2 1008.1 +32.6
15 9.09 штиль 0 10 км 6/1 540 м
[Cu hum Ci fib]
+23.2 +21.3 89 +31 +31 очень
душно
1011.9 1007.8
18 9.09 штиль 0 10 км 6/1 540 м
[Cu hum Ci fib]
+22.0 +21.3 96 +29 +29 очень
душно
1010.3 1006.2
21 9.09 штиль 0 10 км 6/1 540 м
[Cu hum Ci fib]
+20.1 +19.5 96 +23 +23 комфорт 1010.7 1006.6
00 10.09 ЮЗ 2 10 км 6/1 540 м
[Cu hum Ci fib]
+26.2 +21.7 76 +34 +41 очень
душно
1012.3 1008.2 +19.8
03 10.09 З 4 10 км 6/4 540 м
[Cu hum Ci fib]
+31.4 +21.7 56 +40 +48 очень
душно
1011.3 1007.2
06 10.09 З 8 10 км 6/4 540 м
[Cu med, cong Ci fib]
+31.0 +21.2 56 +39 +40 очень
душно
1009.2 1005.1
09 10.09 ЮЗ 6 10 км 5/4 540 м
[Cu med, cong Ci sp]
+27.8 +21.5 69 +36 +36 очень
душно
1009.8 1005.7
12 10.09 З 2 10 км 4/3 540 м
[Cu hum Ci fib]
+24.0 +22.1 89 +31 +31 очень
душно
1012.2 1008.1 +32.0
15 10.09 штиль 0 10 км 3/0
[Ci sp]
+21.9 +21.0 95 +28 +28 душно 1012.7 1008.6
18 10.09 штиль 0 10 км 5/4 540 м
[Cu med, cong As trans Ci sp]
+21.0 +20.6 98 +26 +26 душно 1012.2 1008.1
21 10.09 штиль 0 10 км 8/4 540 м
[Cu med, cong As trans Ci sp]
+20.0 +19.6 98 +23 +23 комфорт 1012.0 1007.9
00 11.09 ЮЗ 5 10 км 4/3 540 м
[Cu hum Ci fib]
+27.4 +20.4 66 +34 +37 очень
душно
1012.7 1008.6 +20.0
03 11.09 ЮЗ 4 10 км 5/4 540 м
[Cu hum Ci fib]
+31.0 +21.4 57 +39 +47 очень
душно
1011.1 1007.0
06 11.09 З 5 10 км 5/4 540 м
[Cu med, cong Ci fib]
+30.8 +22.3 61 +40 +45 очень
душно
1009.3 1005.2
09 11.09 З 4 10 км 4/1 540 м
[Cu hum Ci fib]
+27.5 +22.0 72 +36 +36 очень
душно
1010.0 1005.9
12 11.09 ЮЗ 2 10 км 4/1 540 м
[Cu hum Ci fib]
+23.4 +20.1 82 +31 +31 очень
душно
1012.6 1008.5 +32.0
15 11.09 штиль 0 10 км 3/1 540 м
[Cu hum Ci fib]
+20.4 +19.7 96 +24 +24 комфорт 1013.1 1009.0
18 11.09 штиль 0 10 км 3/1 540 м
[Cu hum Ci fib]
+19.6 +18.9 96 +22 +22 комфорт 1011.8 1007.7
21 11.09 З 1 10 км 3/1 540 м
[Cu hum Ci fib]
+17.9 +17.3 96 +19 +19 1011.3 1007.2
00 12.09 З 3 10 км 3/1 540 м
[Cu hum Ci fib]
+27.4 +20.7 67 +34 +40 очень
душно
1012.1 1008.0 +17.8
03 12.09 З 6 10 км 3/1 540 м
[Cu hum Ci fib]
+32.9 +20.2 47 +39 +48 очень
душно
1010.4 1006.3
06 12.09 ЮЗ 6 10 км 3/1 540 м
[Cu hum Ci fib]
+33.3 +21.4 50 +41 +46 опасность
перегрева
1007.9 1003.8
09 12.09 З 3 10 км 3/1 540 м
[Cu hum Ci fib]
+29.4 +23.0 68 +39 +39 очень
душно
1008.4 1004.3
12 12.09 З 2 10 км 3/1 540 м
[Cu hum Ci fib]
+23.8 +22.8 94 +31 +31 очень
душно
1010.6 1006.5 +33.8
15 12.09 штиль 0 10 км 3/1 540 м
[Cu hum Ci fib]
+21.6 +20.9 96 +27 +27 душно 1011.3 1007.2
18 12.09 штиль 0 10 км 3/1 540 м
[Cu hum Ci fib]
+20.2 +19.8 98 +24 +24 комфорт 1009.8 1005.7
21 12.09 штиль 0 10 км 6/4 540 м
[Cu med, cong Ac trans Ci fib]
+19.2 +18.8 98 +21 +21 комфорт 1011.0 1006.9
00 13.09 З 3 10 км 3/1 540 м
[Cu hum Ci fib]
+27.4 +21.4 70 +35 +41 очень
душно
1011.4 1007.3 +19.2
03 13.09 ЮВ 3 10 км 3/1 540 м
[Cu hum Ci fib]
+32.7 +21.3 51 +40 +57 опасность
солнечного
удара
1008.8 1004.7
06 13.09 ЮЗ 5 10 км 4/3 540 м
[Cu hum Ci fib]
+33.4 +24.0 58 +45 +51 опасность
перегрева
1006.8 1002.7
09 13.09 ЮЗ 4 10 км 3/1 540 м
[Cu hum Ci fib]
+30.3 +24.4 71 +43 +43 опасность
перегрева
1008.1 1004.0
12 13.09 штиль 0 10 км 3/1 540 м
[Cu hum Ci fib]
+24.7 +23.7 94 +34 +34 очень
душно
1011.6 1007.5 +34.6
15 13.09 штиль 0 10 км 6/1 540 м
[Cu hum Ac trans Ci fib]
+22.7 +22.0 96 +31 +31 очень
душно
1012.4 1008.3
18 13.09 штиль 0 10 км 6/1 540 м
[Cu hum Ac trans Ci fib]
+22.0 +21.4 96 +29 +29 очень
душно
1011.0 1006.9
21 13.09 штиль 0 10 км 4/1 540 м
[Cu hum Ac trans Ci fib]
+20.4 +20.1 98 +24 +24 комфорт 1011.8 1007.7
00 14.09 Ю 3 10 км 1/1 540 м
[Cu hum Ci fib]
+28.0 +21.1 66 +35 +41 очень
душно
1012.6 1008.5 +20.0
03 14.09 10 км 3/3 540 м
[Cu hum Ci fib]
+32.3 +22.9 58 1010.3 1006.2
06 14.09 штиль 0 10 км 5/5 540 м
[Cu hum Ci fib]
+31.9 +24.9 67 +45 +55 опасность
перегрева
1008.3 1004.2
09 14.09 З 3 10 км 1/1 570 м
[Cu hum Ci fib]
+28.6 +26.0 86 +43 +43 опасность
перегрева
1009.1 1005.0
12 14.09 штиль 0 10 км 1/1 570 м
[Cu hum Ci fib]
+24.6 +23.6 94 +33 +33 очень
душно
1011.8 1007.7 +33.6
15 14.09 штиль 0 10 км 1/1 570 м
[Cu hum Ci fib]
+23.2 +22.5 96 +32 +32 очень
душно
1012.3 1008.2
18 14.09 штиль 0 10 км 1/1 570 м
[Cu hum Ci fib]
+21.6 +21.2 98 +28 +28 очень
душно
1011.3 1007.2
21 14.09 З 3 10 км 1/1 570 м
[Cu hum Ci fib]
+21.9 +20.9 94 +28 +28 душно 1011.7 1007.6
00 15.09 З 3 10 км 3/3 570 м
[Cu med, cong Ci fib]
+28.2 +22.1 70 +37 +42 очень
душно
1012.1 1008.0 +21.4
03 15.09 З 2 10 км 6/5 570 м
[Cu med, cong Ci fib]
+32.4 +22.5 56 +42 +52 опасность
перегрева
1010.0 1005.9
06 15.09 З 7 10 км 6/5 540 м
[Cu med, cong Ac trans Ci fib]
+31.8 +24.1 64 +44 +45 опасность
перегрева
1008.5 1004.4
09 15.09 ЮЗ 2 10 км 8/5 540 м
[Cu med, cong Ac trans Ci fib]
+28.5 +23.5 74 +39 +39 очень
душно
1009.2 1005.1
12 15.09 штиль 0 10 км 4/3 540 м
[Cu med, cong Ci fib]
+24.4 +23.0 92 +32 +32 очень
душно
1011.5 1007.4 +32.8
15 15.09 штиль 0 10 км 5/4 540 м
[Cu med, cong Ac trans Ci fib]
+23.2 +22.5 96 +32 +32 очень
душно
1012.2 1008.1
18 15.09 штиль 0 10 км 3/1 540 м
[Cu hum Ci fib]
+21.6 +21.2 98 +28 +28 очень
душно
1010.8 1006.7
21 15.09 штиль 0 10 км 4/3 540 м
[Cu hum Ci fib]
+20.1 +19.8 98 +24 +24 комфорт 1010.9 1006.8
00 16.09 штиль 0 10 км 3/1 540 м
[Cu hum Ci fib]
+26.3 +22.9 82 +35 +45 очень
душно
1012.0 1007.9 +19.9
03 16.09 В 2 10 км 5/4 540 м
[Cu hum Ci fib]
+31.7 +23.8 63 +43 +56 опасность
перегрева
1010.2 1006.1
06 16.09 В 2 10 км 5/4 540 м
[Cu med, cong Ci fib]
+32.0 +24.1 63 +44 +52 опасность
перегрева
1008.5 1004.4

 

Местоположение метеостанции Голеа (Индонезия): широта 1.82 долгота 127.83 высота над уровнем моря 8 м.

В архиве по умолчанию представлена погода в Голеа за последнюю неделю. Архивные данные за месяц целиком и за предыдущие месяцы, начиная с января 2011 года, Вы можете получить, выбрав интересующий диапазон дат из раскрывающегося списка и нажав кнопку "Ввод!".


*Определитесь, кто Вы:
робот инопланетянин человек

Внимание! Время в таблицах - всемирное. Для получения местного времени необходимо прибавить поправку, которая равна 8 ч.

Смотрите также архив погоды в соседних городах и на ближайших метеорологических станциях:

Погода в Тернате (Индонезия) (128 км)
Погода в Лабухе (Индонезия) (275 км)
Погода в Битунге (Индонезия) (298 км)
Погода в Менадо (Индонезия) (326 км)
Погода в Аэропорту Соронг-Джефман (Индонезия) (476 км)
Погода на Санане (Индонезия) (479 км)
Погода в Горонтало (Индонезия) (550 км)
Погода в Генерал-Сантосе (Филиппины) (561 км)
Погода в Намлеа (Индонезия) (570 км)
Погода в Амахаи (Индонезия) (587 км)

Пояснения к столбцам:

Ветер - указаны скорость ветра в м/с - средняя за 10 мин, порывы в срок и между сроками (в фигурных скобках) и направление, откуда дует ветер: С - северный, СВ - северо-восточный, В - восточный, ЮВ - юго-восточный, Ю - южный, ЮЗ - юго-западный, З - западный, СЗ - северо-западный.
Видимость - горизонтальная дальность видимости в метрах или километрах. При видимости от 1 до 10 км при отсутствии осадков обычно наблюдается дымка, при ухудшении видимости до 1 км и менее - туман. В сухую погоду видимость может ухудшаться дымом, пылью или мглою.
Явления - указаны атмосферные явления, наблюдавшиеся в срок или в последний час перед сроком; фигурными скобками обозначены явления, наблюдавшиеся между сроками (за 1-3 часа до срока); квадратными скобками обозначены град или гололедные отложения с указанием их диаметра в мм.
Облачность - указаны через наклонную черту общая и нижняя облачность в баллах и высота нижней границы облаков в метрах; квадратными скобками обозначены формы облаков: Ci - перистые, Cs - перисто-слоистые, Cc - перисто-кучевые, Ac - высококучевые, As - высокослоистые, Sc - слоисто-кучевые, Ns - слоисто-дождевые, Cu - кучевые, Cb - кучево-дождевые. Подробнее классификацию облаков см. в Атласе облаков (PDF).
T - Температура воздуха - температура, измеренная на высоте 2 м над землей.
Td - Температура точки росы - температура, при понижении до которой содержащийся в воздухе водяной пар достигнет насыщения.
f - Относительная влажность воздуха - влажноcть воздуха, измеренная на высоте 2 м над землей.
Te - Эффективная температура - температура, которую ощущает одетый по сезону человек в тени. Характеристика душности погоды. При расчете учитывается влияние влажности воздуха и скорости ветра на теплоощущения человека.
Tes - Эффективная температура на солнце - температура, которую ощущает человек, с поправкой на солнечный нагрев. Характеристика знойности погоды. Зависит от высоты солнца над горизонтом, облачности и скорости ветра. Ночью, в пасмурную погоду, а также при ветре 12 м/с и более поправка равна нулю.
P - Атмосферное давление - приведенное к уровню моря атмосферное давление.
Po - Атмосферное давление - измеренное на уровне метеостанции атмосферное давление.
Tmin - Минимальная температура - минимум температуры воздуха на высоте 2 м над землей.
Tmax - Максимальная температура - максимум температуры воздуха на высоте 2 м над землей.
R - Количество осадков - Количество выпавших осадков за период времени, мм. При наведении курсора мыши на число - период времени, за который выпало указанное количество осадков.
R24 - Количество осадков - Количество выпавших осадков за 24 часа, мм.
S - Снежный покров - Высота снежного покрова, см. При наведении курсора мыши на число - состояние снежного покрова и степень покрытия местности в баллах.